Location: Peterborough
(44.3091°N, 78.3197°W)
Time: 01:31:57
(UTC-04:00)

S-56A Canister/Altair - Pass Details

Date: 22 March 2023
Orbit: 639 x 2492 km, 38.9° (Epoch: 02 June)

Event Time Altitude Azimuth Distance (km) Brightness Sun altitude
Rises 02:11:48 0° 281° (WNW) 6,123 12.1 -43.7°
Reaches altitude 10° 02:15:56 10° 277° (W) 5,154 11.6 -43.5°
Enters shadow 02:18:05 16° 274° (W) 4,664 11.3 -43.3°
